星链-34215 (STARLINK-34215)

导读

STARLINK-34215是美国星链计划中的一颗卫星,发射于2025年6月3日,是SpaceX公司打造的星链星座组网卫星之一。星链项目旨在构建覆盖全球的低轨卫星互联网星座,为全球偏远地区、海洋等网络盲区提供高速网络接入服务,该卫星入轨后将参与星座组网,进一步完善星链系统的全球覆盖能力。

基本信息
目录编号:
64252
目录名称:
STARLINK-34215
国际标识:
2025-119V
轨道中心:
EARTH
卫星名称:
星链-34215
卫星全名:
星链-34215 (STARLINK-34215)
卫星状态:
在轨 (已飞行458 天)
发射日期:
2025-06-03 UTC
国别 :
美国 (US)
星等 :
--
轨道信息
数据来源 国际轨道数据
星历时间: 2026-09-04T03:55:23+0800
19小时前
查看轨道信息
半长轴: 6861.139km
偏心率: 0.0002175
轨道倾角: 43.005°
近地点辐角 276.102°
升交点赤经 21.003°
平近点角 83.958°
近地点: 481.509km
远地点: 484.495km
周期: 94.266分钟
每日圈数: 15.27596
详细信息
固有亮度:
5
最大亮度:
2.5
卫星平台:
Starlink V1.0
覆盖范围:
全球
运营商:
太空探索技术公司
运营商所在国:
美国
制造商(研发单位):
太空探索技术公司
制造商所在国:
美国
使用方式:
暂无
卫星简介
Starlink 计划是 SpaceX 推出的全球卫星互联网项目,通过发射低轨道卫星,为全球尤其是偏远地区提供高速、低延迟的互联网服务。自 2019 年起,Starlink 已部署数千颗卫星,旨在缩小全球数字鸿沟,推动互联网普及。该项目还为军事、航空等行业提供通信支持,带来广泛经济效益。
2D轨道图
3D轨道图
轨道高度分析图
轨道倾角分析图
轨道综合分析图
查看轨道综合分析图